Location: Elliott Corner
(37.4627°N, 119.7746°W)
Time: 23:57:00
(UTC+00:00)

Cosmos 1862 - Pass Details

Date: 10 September 2024
Orbit: 499 x 516 km, 82.5° (Epoch: 13 October)

Event Time Altitude Azimuth Distance (km) Brightness Sun altitude
Rises 12:20:46 0° 342° (NNW) 2,600 6.8 -15.7°
Reaches altitude 10° 12:23:02 10° 332° (NNW) 1,710 5.7 -15.2°
Maximum altitude 12:26:23 31° 269° (W) 891 3.8 -14.6°
Enters shadow 12:27:47 24° 229° (SW) 1,080 4.3 -14.3°
